GFSFLT1_con_lsi_096.txt.gz
Lid_Strength_Index
13 14 14 13 11 12 11 8 8 9 6 7 7 4 4 2 1 0 0 -0 -0 -1 -1 -1 -1 -1 -1 -1 -1 -1 -1 -1
13 15 12 11 12 11 10 8 8 8 8 7 5 5 2 1 0 1 0 0 -0 -1 -1 -1 -1 -1 -1 -1 -1 -1 -1 -1
15 13 11 10 11 11 11 10 9 9 9 8 6 2 1 1 1 1 1 0 -0 -1 -1 -1 -1 -1 -1 -1 -1 -1 -1 -1
15 12 10 9 9 10 11 10 8 9 9 9 6 3 2 1 1 0 1 0 -0 -1 -1 -1 -1 -1 -1 -1 -1 -1 -1 -1
13 11 10 9 8 11 11 12 11 8 10 9 8 6 2 1 1 1 0 0 -0 -0 -0 -1 -1 -1 -1 -1 -1 -1 -1 -1
13 12 11 9 9 10 10 11 9 8 10 10 8 4 3 1 2 1 1 0 0 -0 -0 0 -0 -1 -1 -1 -1 -1 -1 -1
13 12 11 9 11 9 8 9 10 9 8 6 6 2 2 3 2 2 1 1 0 0 -0 -0 0 -0 -1 -1 -1 -1 -1 -1
11 10 11 10 11 10 9 9 10 10 9 6 4 4 4 4 4 3 2 1 1 0 0 -0 -0 -0 0 -0 -0 -0 -0 -0
11 10 9 10 10 9 10 11 10 10 10 8 6 7 4 4 3 3 2 1 1 1 0 0 0 -0 -0 -0 -0 -0 -0 -0
11 10 11 11 9 10 9 9 8 8 8 7 7 7 6 4 3 3 2 2 1 0 1 0 0 0 0 0 -0 -0 -0 -0
10 10 11 10 10 10 10 8 8 8 8 6 6 6 6 6 3 3 3 2 1 1 1 0 0 0 0 0 0 -0 -0 -0
11 11 11 11 11 10 9 7 9 9 9 9 6 6 6 6 5 3 2 2 1 1 0 0 0 0 0 0 -0 0 0 -0
12 11 11 11 12 11 9 8 9 9 9 8 8 6 5 5 4 4 3 2 2 1 0 0 0 0 0 0 0 1 1 1
13 12 11 11 15 10 9 10 9 9 9 9 9 7 5 5 4 4 3 2 2 1 1 1 1 0 0 1 0 0 0 -0
14 12 12 12 14 11 9 10 10 9 9 9 9 8 8 6 5 5 4 2 2 1 1 1 1 0 0 1 1 1 0 -0
15 12 12 13 13 11 10 10 10 10 9 9 8 8 7 6 7 5 3 3 2 2 2 2 2 1 1 1 0 -0 0 -0
13 11 12 13 13 11 10 11 10 10 10 9 9 7 6 6 5 5 5 2 3 3 3 2 2 2 2 2 1 1 0 -0
13 11 12 13 13 12 11 11 10 10 9 9 9 8 7 7 6 4 2 2 2 3 4 2 1 3 3 3 3 3 2 1
14 12 13 14 15 13 11 11 10 9 9 9 9 8 8 7 6 5 3 2 2 2 3 3 3 6 7 6 5 4 3 2
13 15 17 14 18 15 13 12 11 10 10 10 9 9 9 8 7 6 4 2 2 2 2 3 4 5 7 6 6 5 4 4

GFSFLT1_con_lsi_102.txt.gz
Lid_Strength_Index
7 8 10 9 7 7 6 5 5 6 4 4 5 3 2 0 -0 -1 -1 -1 -2 -1 -1 -1 -1 -1 -1 -1 -1 -1 -1 -1
9 10 8 7 7 7 6 5 4 5 6 3 2 2 1 -0 -0 -0 -0 -1 -1 -1 -1 -1 -1 -1 -1 -1 -1 -1 -1 -1
9 9 9 6 5 6 7 7 6 5 6 4 2 1 0 0 -0 0 -0 -1 -1 -1 -1 -1 -1 -1 -1 -1 -1 -1 -1 -1
11 10 8 7 6 6 7 7 6 6 6 5 2 1 1 0 -0 -0 -0 -1 -1 -1 -1 -1 -1 -1 -1 -1 -1 -1 -1 -1
10 10 8 6 5 6 7 7 7 6 7 4 3 2 0 0 -0 -0 -1 -1 -1 -1 -1 -1 -1 -1 -1 -1 -1 -1 -1 -1
9 10 9 6 5 5 6 7 5 6 6 6 5 3 0 0 0 -0 -0 -0 -1 -1 -1 -1 -1 -1 -1 -1 -1 -1 -1 -1
9 8 8 6 6 6 6 6 6 5 5 5 5 1 1 1 1 1 0 -0 -1 -1 -1 -1 -1 -1 -1 -1 -1 -1 -1 -1
6 6 7 7 7 6 7 7 6 5 4 4 5 2 2 2 2 1 1 0 -0 -1 -1 -1 -1 -1 -2 -2 -2 -2 -2 -2
6 6 6 7 7 6 7 7 5 5 4 4 4 4 2 2 2 1 1 0 -0 -0 -1 -1 -1 -1 -1 -1 -1 -2 -2 -2
6 6 6 6 6 6 6 5 4 4 4 4 4 4 3 2 1 1 1 0 -0 -0 -1 -1 -1 -1 -1 -1 -1 -1 -1 -2
6 6 6 6 7 6 6 4 4 4 4 4 4 3 2 1 1 1 1 0 0 -0 -0 -1 -1 -1 -1 -1 -1 -1 -1 -2
6 6 6 7 6 7 6 4 4 4 4 3 4 3 2 1 1 1 1 1 -0 -0 -1 -1 -0 -1 -0 -1 -1 -1 -1 -1
6 6 6 6 7 7 5 5 5 5 4 4 3 3 3 2 1 0 0 0 0 0 -0 -0 -0 -0 -0 -1 -1 -1 -1 -2
6 7 6 7 9 6 5 5 5 5 4 4 3 3 2 2 1 -0 0 0 0 -0 -0 -0 -0 -0 -0 -0 -0 -0 -0 -1
8 7 7 8 8 6 5 5 5 4 4 4 3 2 1 1 1 0 -0 -0 0 -0 0 -0 -0 -0 -0 -1 -0 -0 -1 -1
10 7 7 8 8 6 5 5 5 4 4 4 3 2 1 1 0 0 -0 -1 -0 -0 -0 -0 -0 -0 -0 -0 -0 -0 -0 -0
8 7 8 7 7 6 5 5 5 4 4 3 3 2 1 1 0 0 -0 -0 -0 -0 -0 0 1 1 1 1 1 0 -0 -1
8 7 8 8 8 6 6 5 5 4 4 3 3 2 2 1 0 0 0 -0 -0 -0 -0 0 0 0 0 0 0 0 -0 -1
9 8 7 8 9 8 6 5 5 4 3 3 3 3 2 2 1 1 0 0 -0 -1 -1 -0 -0 0 0 0 0 1 1 0
9 10 12 8 13 9 7 7 6 5 4 4 3 3 2 2 1 1 1 -0 -0 -1 -1 -0 -1 0 1 2 2 1 1 0

GFSFLT1_con_lsi_105.txt.gz
Lid_Strength_Index
7 8 10 10 7 6 5 4 4 4 3 4 5 3 2 1 -0 -0 -0 -1 -1 -1 -1 -1 -1 -1 -1 -1 -1 -1 -1 -1
8 8 7 7 6 6 6 5 4 4 5 3 1 2 1 -0 -0 -0 -0 -1 -1 -1 -1 -1 -1 -1 -1 -1 -1 -1 -1 -1
8 8 6 6 5 5 5 5 5 5 5 4 2 1 0 0 -0 0 -0 -1 -1 -1 -1 -1 -1 -1 -1 -1 -1 -1 -1 -1
10 8 6 6 5 5 5 4 4 5 5 4 1 1 1 0 -0 -0 -0 -1 -1 -1 -1 -1 -1 -1 -1 -1 -1 -1 -1 -1
10 10 8 6 4 5 5 5 5 4 6 3 2 1 0 0 -0 -0 -0 -0 -1 -1 -1 -1 -1 -1 -1 -1 -1 -1 -1 -1
9 10 10 7 5 5 5 5 4 5 6 5 3 2 0 0 0 -0 -0 -0 -0 -1 -1 -1 -1 -1 -1 -1 -1 -1 -1 -1
8 9 8 5 6 5 4 5 5 4 4 3 4 2 1 1 1 1 0 -0 -0 -0 -1 -1 -1 -1 -1 -1 -1 -1 -1 -1
5 5 6 5 6 5 6 7 5 4 3 3 3 3 2 2 2 1 1 0 -0 -0 -1 -1 -1 -1 -1 -1 -1 -1 -1 -1
5 5 5 5 6 5 6 7 5 4 3 2 2 2 2 2 2 1 1 0 -0 -0 -1 -1 -0 -1 -1 -1 -1 -1 -2 -2
5 5 5 6 5 6 5 5 4 4 3 3 2 2 2 2 2 2 1 0 -0 -0 -1 -1 -1 -0 -1 -0 -1 -1 -1 -2
4 5 5 5 6 6 6 4 3 3 4 3 3 2 1 1 1 1 2 1 0 -0 -0 -0 -0 -0 -0 -0 -0 -1 -1 -2
5 5 5 6 6 5 5 4 4 3 3 3 2 2 2 2 1 2 1 0 -0 -0 -0 -0 -0 -0 -0 -1 -1 -1 -1 -1
6 5 6 5 7 7 4 4 4 4 3 3 2 2 2 1 1 0 0 -0 0 -0 -0 -0 -0 -0 -0 -0 -1 -0 -0 -2
6 5 5 6 9 5 4 4 5 4 4 3 2 2 1 1 0 -0 -0 -0 -0 -0 -0 -0 -0 -0 -0 -0 -0 -1 -0 -1
7 5 6 7 8 5 4 4 4 4 4 3 3 2 1 1 0 -0 -1 -0 0 -0 -0 -0 -0 -0 -0 -1 -0 -0 -1 -1
8 6 6 7 7 5 4 4 4 4 3 3 3 2 1 1 0 -0 -0 -1 -1 -0 -0 -0 -0 0 0 -0 -0 -0 -0 -0
7 6 7 7 7 6 4 4 4 4 3 3 3 2 1 1 0 0 -0 -0 -1 -0 -0 0 1 1 1 1 1 0 -0 -1
7 6 6 7 7 6 5 5 4 4 4 3 3 2 2 1 1 0 -0 -1 -1 -0 -1 -0 0 1 1 1 0 0 -0 -0
8 7 6 7 8 7 5 4 4 3 3 3 3 3 2 2 1 0 0 -0 -0 -1 -1 -1 -1 0 0 0 0 1 0 0
8 9 11 7 12 8 6 6 5 4 4 3 3 2 2 2 1 1 1 -0 -1 -1 -1 -1 -1 0 1 2 2 1 1 0

GFSFLT1_con_lsi_111.txt.gz
Lid_Strength_Index
13 14 15 13 9 8 6 5 6 7 5 5 6 4 3 1 1 0 0 0 -0 -1 -1 -1 -1 -1 -1 -1 -1 -1 -1 -1
15 15 12 10 8 6 6 5 5 6 6 4 2 3 2 1 0 1 1 -0 -0 -0 -0 -1 -1 -1 -1 -1 -1 -1 -1 -1
16 14 10 9 7 6 6 7 6 6 6 6 3 2 1 1 0 1 1 0 -0 -0 -0 -1 -1 -1 -1 -1 -1 -1 -1 -1
16 14 10 9 8 6 7 7 6 7 6 6 2 2 2 1 1 0 1 0 -0 -0 -0 -0 -1 -1 -1 -1 -1 -1 -1 -1
14 13 11 9 8 8 8 7 8 7 7 8 5 2 2 2 1 1 0 0 0 -0 -0 -1 -0 -0 -0 -0 -1 -1 -1 -1
14 13 13 9 8 9 8 7 5 5 8 9 7 5 2 2 1 1 1 0 0 0 -0 0 0 -1 -0 -1 -1 -1 -1 -1
15 14 12 10 10 8 6 7 6 7 6 5 4 3 6 4 2 2 1 1 0 0 0 0 0 -0 -0 -1 -1 -1 -1 -1
11 11 12 10 10 10 9 9 8 8 6 5 5 6 5 6 4 3 2 2 1 0 0 1 -0 0 0 -0 -0 -0 -0 -0
9 9 8 10 10 8 9 11 8 9 7 6 6 5 5 5 4 2 2 1 1 1 0 1 1 -0 -0 0 -0 -0 -0 -0
7 6 8 9 7 8 9 9 7 6 5 5 6 6 6 5 6 3 2 2 1 1 1 1 0 0 0 0 0 -0 -0 -0
6 7 8 7 8 7 8 6 5 5 5 6 6 6 6 5 5 3 3 2 1 1 1 1 0 0 0 1 0 0 0 1
7 7 8 8 8 8 7 5 6 5 6 6 5 5 6 6 5 4 2 2 1 2 1 1 1 1 1 1 1 0 0 0
8 8 8 7 9 8 6 6 6 6 6 5 5 5 5 5 4 4 2 2 3 4 4 2 1 1 0 1 1 1 0 0
10 7 7 8 12 7 6 6 7 6 6 5 6 5 5 4 3 3 2 2 2 1 2 1 1 1 1 0 1 1 1 0
10 7 7 8 11 7 6 7 7 6 6 6 6 5 5 4 3 3 3 4 2 2 2 2 1 1 0 0 0 1 0 0
11 9 8 9 10 8 7 7 7 7 6 6 6 6 4 4 3 3 2 2 2 2 1 1 1 1 1 1 1 0 1 1
10 8 10 11 10 9 8 8 8 8 7 7 6 5 4 3 3 3 3 3 2 2 2 1 3 2 2 2 2 1 1 1
9 8 9 10 10 9 8 8 8 7 7 6 6 5 4 4 3 3 2 2 2 2 2 2 1 1 1 2 1 1 1 1
11 9 9 10 11 10 8 7 7 6 6 6 6 5 5 4 4 3 3 3 3 2 2 2 2 2 2 3 2 2 2 1
9 11 14 10 15 11 9 8 7 7 7 7 6 5 5 4 4 4 3 3 2 2 3 2 2 2 3 3 4 2 3 1

GFSFLT1_con_lsi_114.txt.gz
Lid_Strength_Index
14 16 17 15 11 9 7 6 6 7 5 6 7 4 3 1 1 0 0 -0 -0 -1 -1 -1 -1 -1 -1 -1 -1 -1 -1 -1
16 16 14 11 10 9 6 6 6 6 7 4 2 3 2 1 0 1 0 -0 -0 -1 -1 -1 -1 -1 -1 -1 -1 -1 -1 -1
17 15 13 11 9 10 7 7 7 6 7 6 3 1 1 1 1 1 0 0 -0 -1 -1 -1 -1 -1 -1 -1 -1 -1 -1 -1
18 15 11 12 10 9 8 7 7 6 6 6 2 2 2 1 1 0 1 0 -0 -1 -1 -1 -1 -1 -1 -1 -1 -1 -1 -1
16 15 13 12 10 10 9 8 8 7 9 8 5 2 1 1 1 1 0 0 0 -0 -0 -1 -1 -1 -1 -1 -1 -1 -1 -1
16 15 14 11 11 11 11 9 6 7 10 10 8 3 1 1 1 1 1 0 0 0 -0 0 -0 -1 -1 -1 -1 -1 -1 -1
16 15 13 10 12 10 8 9 8 7 7 8 7 3 2 2 2 2 1 1 0 0 -0 -0 -0 -0 -1 -1 -1 -1 -1 -1
13 12 12 11 11 10 10 10 9 8 6 6 6 7 4 4 4 3 2 1 1 0 0 0 -0 -0 -0 -0 -0 -0 -0 -0
11 10 10 12 12 11 11 12 10 10 8 8 8 8 7 7 3 3 2 1 1 0 0 0 0 0 -0 -0 -0 -0 -0 -0
10 9 10 11 10 10 11 11 8 9 8 8 8 9 8 6 4 3 2 2 1 0 0 0 0 0 -0 0 -0 0 -0 -0
8 8 9 9 10 10 10 8 8 8 7 8 8 7 7 6 3 3 3 2 2 1 1 0 1 0 0 0 0 -0 -0 -0
9 8 9 9 9 9 8 7 7 6 6 7 7 6 7 6 4 3 2 2 1 1 1 1 1 1 1 0 0 0 -0 -0
10 9 9 8 10 10 7 6 7 7 7 6 6 6 6 6 5 3 2 2 1 1 0 1 1 1 1 1 1 1 1 0
11 9 8 9 13 9 7 7 8 7 7 7 7 6 6 5 6 4 2 2 1 1 2 4 1 1 1 2 2 2 2 1
11 9 9 9 11 8 7 7 8 8 7 7 7 6 5 5 4 2 2 3 3 4 4 4 3 1 2 1 2 3 3 2
12 10 10 11 11 8 8 8 9 8 8 7 7 6 6 5 4 4 2 3 3 4 4 1 3 1 1 1 1 1 2 3
10 9 10 12 11 10 9 10 10 9 9 8 7 6 5 4 4 4 3 2 3 4 3 5 5 2 2 2 2 1 1 1
11 9 10 11 11 10 9 10 9 9 8 8 8 7 6 5 4 4 6 5 6 4 3 2 3 4 2 2 2 1 1 0
11 9 10 11 13 11 9 8 8 8 8 7 7 7 6 5 5 4 4 3 3 3 3 2 2 2 2 2 2 2 3 2
10 12 15 11 17 13 11 10 9 8 8 8 7 6 6 5 4 3 4 3 3 2 2 3 2 3 3 3 4 3 2 1

GFSFLT1_con_lsi_117.txt.gz
Lid_Strength_Index
14 17 17 15 12 10 9 8 6 7 6 6 7 4 4 2 1 0 0 0 -0 -1 -1 -1 -1 -1 -1 -1 -1 -1 -1 -1
16 17 14 13 11 10 11 8 6 6 7 5 3 3 2 1 0 1 0 0 -0 -1 -1 -1 -1 -1 -1 -1 -1 -1 -1 -1
18 16 14 12 11 11 11 8 8 7 8 7 3 2 1 1 1 1 1 0 -0 -1 -1 -1 -1 -1 -1 -1 -1 -1 -1 -1
18 16 12 12 11 11 11 9 7 7 7 6 3 2 2 1 1 0 1 0 -0 -1 -1 -1 -1 -1 -1 -1 -1 -1 -1 -1
17 15 14 12 11 12 12 11 9 6 8 6 4 2 1 1 1 0 0 0 0 0 -0 -1 -1 -1 -1 -1 -1 -1 -1 -1
17 16 15 11 12 13 13 11 7 6 9 8 5 2 1 1 1 1 1 0 0 0 -0 0 -0 -1 -1 -1 -1 -1 -1 -1
16 15 14 13 13 11 10 10 8 9 7 7 2 2 2 3 2 2 1 1 0 0 0 0 0 -0 -1 -1 -1 -1 -1 -1
13 13 13 12 13 12 11 11 10 11 9 7 3 3 4 4 4 3 2 1 1 0 0 -0 -0 0 -0 -0 -0 -0 -0 0
12 11 12 13 12 12 12 13 11 10 9 9 9 5 4 4 3 3 2 1 1 0 0 0 0 -0 -0 -0 -0 -0 -0 0
12 11 12 12 11 11 12 11 9 9 9 9 9 8 7 4 3 3 2 2 1 1 0 0 0 0 0 0 -0 0 -0 0
10 11 12 11 13 12 12 10 9 9 9 10 10 9 8 7 5 2 3 2 1 1 1 0 1 0 0 0 -0 0 -0 -0
10 10 11 12 11 11 10 9 9 9 9 9 9 8 8 6 4 3 2 2 2 1 1 1 1 1 1 0 0 -0 -0 -0
10 10 10 10 11 11 8 8 8 9 9 8 8 8 7 7 3 3 2 2 3 2 1 1 1 1 1 0 0 0 0 -0
11 10 9 9 13 9 8 8 9 8 8 8 7 6 6 6 6 2 2 2 2 1 2 2 1 0 1 1 1 0 1 1
11 9 10 11 13 9 8 8 9 8 8 8 8 7 7 6 7 4 2 2 2 2 2 2 1 0 1 1 2 2 2 2
12 10 10 12 12 10 9 9 9 9 9 8 8 7 6 6 5 3 2 2 2 3 4 3 4 3 2 1 1 3 3 3
11 9 11 12 12 11 9 11 11 10 9 9 8 6 6 6 5 3 2 3 3 4 4 4 4 4 2 2 2 1 2 2
11 10 11 12 12 11 10 10 10 10 10 9 9 8 7 7 6 3 3 2 3 3 5 5 6 2 1 1 1 2 2 2
12 10 11 12 13 12 10 9 9 9 9 9 8 8 8 7 6 4 4 4 4 6 6 6 6 5 6 7 6 5 3 2
11 13 16 12 17 14 12 11 10 9 9 9 9 8 7 7 7 5 5 7 7 7 6 3 2 3 4 4 4 3 3 2

GFSFLT1_con_lsi_123.txt.gz
Lid_Strength_Index
9 9 11 11 8 9 8 8 8 6 4 5 6 4 3 1 0 -0 -0 -1 -1 -1 -1 -1 -1 -1 -1 -1 -1 -1 -1 -1
10 11 10 8 8 9 8 8 7 5 7 4 2 3 2 0 0 0 -0 -1 -1 -1 -1 -1 -1 -1 -1 -1 -1 -1 -1 -1
11 11 10 9 9 8 9 9 8 5 7 6 3 1 1 1 0 0 0 -1 -1 -1 -1 -1 -1 -1 -1 -1 -1 -1 -1 -1
13 12 10 9 9 9 9 9 9 5 6 5 2 2 1 0 0 -0 0 -1 -1 -1 -1 -1 -1 -1 -1 -1 -1 -1 -1 -1
12 12 11 10 9 10 10 10 9 4 7 5 4 2 1 0 0 -0 -0 -0 -1 -1 -1 -1 -1 -1 -1 -1 -1 -1 -1 -1
12 12 11 10 10 9 10 9 7 3 7 6 3 1 1 1 1 0 0 -0 -0 -1 -1 -1 -1 -1 -1 -1 -1 -1 -1 -1
12 12 11 10 11 9 9 9 8 7 6 3 2 1 2 2 2 1 1 0 -0 -0 -1 -1 -1 -1 -1 -1 -1 -1 -1 -1
10 10 10 10 11 10 10 9 7 7 3 3 2 2 3 3 3 2 2 1 -0 -0 -0 -1 -1 -1 -1 -1 -1 -1 -1 -2
11 9 10 10 11 10 10 10 9 8 5 4 3 3 3 3 2 2 1 1 0 -0 -1 -1 -0 -1 -1 -1 -1 -1 -1 -2
11 10 10 10 10 11 10 9 8 8 8 3 4 3 3 3 2 2 1 1 0 -0 -0 -0 -1 -0 -1 -0 -1 -1 -1 -1
11 11 10 10 11 11 10 9 8 8 8 7 3 3 3 2 2 1 2 1 0 -0 -0 -0 -0 -0 -0 -0 -1 -1 -1 -1
12 11 11 12 11 11 10 9 8 8 8 8 7 3 2 2 2 2 1 1 0 0 -0 -0 -0 -0 -0 -1 -1 -1 -1 -1
12 11 12 11 13 12 10 9 9 8 8 8 7 7 6 2 2 2 1 1 1 0 -0 -0 -0 -0 -0 -0 -1 -0 -1 -1
11 12 10 11 14 11 10 10 9 9 8 8 7 7 6 5 3 1 1 1 1 0 0 0 0 -0 -0 -0 -0 -0 -1 -1
11 10 10 10 12 9 9 9 8 7 7 7 7 6 5 4 3 1 0 0 1 0 0 0 -0 -0 -0 -0 -0 -0 -1 -1
10 9 8 10 9 8 7 8 7 6 6 6 6 5 2 2 2 1 0 -0 0 0 0 0 0 -0 -0 -0 -0 -1 -0 -1
10 8 9 9 9 7 7 7 6 6 6 5 5 4 3 3 2 1 1 0 1 1 1 1 1 1 1 2 1 0 -0 -1
9 9 9 9 9 7 7 7 6 6 5 5 4 3 3 2 2 2 1 0 0 1 1 1 1 1 1 1 0 0 -0 -1
10 9 9 10 10 9 7 7 6 6 4 4 4 4 3 2 2 1 1 1 1 1 1 0 0 0 0 0 0 1 1 0
9 10 12 10 13 10 8 7 7 5 5 5 4 3 3 3 2 2 1 1 0 1 1 0 -0 1 1 2 2 1 1 -0